{"data":{"norad_id":58603,"intl_designator":"2023-200Q","name":"STARLINK-31080","alt_names":[],"object_type":"PAYLOAD","status":"ACTIVE","operator":null,"country":"US","launch_date":"2023-12-19","launch_site_code":"AFETR","launch_vehicle":null,"mission":null,"orbit_class":"UNKNOWN","rcs_meters":null,"size_class":null,"mass_kg":null,"dimensions":null,"purposes":["comms"],"wikipedia_slug":null,"has_3d_model":false,"image_url":null,"decayed_at":null,"tle_current":{"epoch":"2026-05-25T03:09:35.936352Z","epoch_age_seconds":64503,"freshness":"FRESH","line1":"1 58603U 23200Q   26145.13166593  .00000813  00000+0  39057-4 0  9990","line2":"2 58603  43.0047  96.9687 0001315 265.5862  94.4839 15.27575260135119","mean_motion":15.2757526,"eccentricity":0.0001315,"inclination_deg":43.0047,"raan_deg":96.9687,"arg_perigee_deg":265.5862,"mean_anomaly_deg":94.4839,"bstar":3.9057e-5,"rev_number":13511,"period_min":94.267041219298,"perigee_km":482.16104150351,"apogee_km":483.96553717961,"semimajor_km":6861.2002893416,"source":"CELESTRAK","updated_at":"2026-05-25T13:38:18.701977Z"}}}